Погода в Бирске

Погода в Бирске : погода сейчас, прогноз погоды и архив. Всё, что Вы хотите узнать о погоде в Бирске!

Хотите узнать прогноз погоды в Бирске? Тогда Вам сюда: Погода в Бирске

Поиск расширенной информации на нашем сайте:

Другие новости

Новости СМИ2

Главная страница сайта

Новости сайта

03.07.2017

Напоминаем, что на нашем специализированном сайте Метеоцентр.Азия вы можете получить высокодетализированные автоматические прогнозы погоды по пунктам России, СНГ и мира в авиационном формате (включающие направление и скорость ветра, видимость, явления погоды, количество и форму облачности, нижнюю и верхнюю границу облачности).

Рекомендуем: Английский язык в Одинцово

Погода в Бирске - сегодня

Время (UTC), дата Ветер
(°,м/с) 
Видим.   Явления Облачность Т
(°С)
Тd
(°С)
f(%) Тe
(°С)
Pmin
(гПа)
dP
(гПа)
Po
(мм)
O2
(г/м3)
Тmin Tmax R s Состояние
почвы
21 21.11.17 130 (ЮВ) 10 км    ясно 
+1.3 -6.5 56 -1  1014.5  -1.1  743  299           
00 22.11.17 130 (ЮВ) 10 км    ясно 
+0 -5.8 65 -1  1014.1  -0.5  743  300           
03 22.11.17 120 (ЮВ) 10 км    8/3 600 м средняя 
[Sc|Ac cast]
-1.2 -5.2 74 -2  1013.8  -0.4  743  301  -1.4      равномерный
мокрый или
старый снег
100% 
06 22.11.17 170 (Ю) 20000 м    9/8 600 м средняя 
[Sc|Ac trans]
+0.9 -4.3 68 +2  1013.5  0.1  743  299           
09 22.11.17 130 (ЮВ) 20000 м    9/0 верхняя 
[Ci fib]
+2.9 -4.1 60 +2  1012.7  -0.7  742  296           
12 22.11.17 100 (В) 20000 м    9/0 средняя, верхняя 
[Ac trans|Ci fib]
+1 -3.4 72 1012  -0.8  742  298           
15 22.11.17 090 (В) 10 км    8/0 средняя 
[Ac trans]
+1.3 -3.9 68 1010.2  -1.7  740  297    +3       
18 22.11.17 060 (СВ) 10 км    5/0 средняя 
[Ac trans]
+3.6 -3.6 59 +3  1009.6  -0.4  740  295           
21 22.11.17 110 (В) 10 км    ясно 
+4 -4 56 +4  1010.1  0.5  740  294           
00 23.11.17 070 (В) 10 км    ясно 
+3.7 -4 57 +3  1009.5  -0.6  740  295           
03 23.11.17 110 (В) 10 км    4/0 верхняя 
[Ci sp]
+3.6 -5 53 +4  1009.7  0.2  740  295  +1.3      равномерный
мокрый или
старый снег
100% 
06 23.11.17 110 (В) 20000 м    9/0 средняя 
[Ac cast]
+4.6 -6.1 46 +4  1010.5  0.8  741  294           
09 23.11.17 120 (ЮВ) 20000 м    9/0 средняя 
[Ac cast]
+6 -6 42 +7  1010.8  0.5  741  293           
12 23.11.17 130 (ЮВ) 20000 м    8/0 средняя, верхняя 
[Ac cast|Ci sp]
+4.9 -6.8 42 +5  1011.3  0.4  741  294           
15 23.11.17 150 (ЮВ) 10 км    6/0 средняя 
[Ac trans]
+4.6 -6.8 43 +3  1012.3  0.9  742  295    +6.6       
18 23.11.17 200 (Ю) 10 км    4/0 средняя 
[Ac cast]
+3.3 -5.7 52 +3  1014.2  1.7  743  297           
21 23.11.17 190 (Ю) 10 км    ясно 
+2.3 -4.9 59 +3  1014.9  0.7  744  298           
00 24.11.17 тихо ()   10 км    3/0 верхняя 
[Ci fib]
-0.6 -5 72 -1  1015.5  0.3  744  301           
03 24.11.17 070 (В) 10 км    3/0 верхняя 
[Ci fib]
-1.7 -5 78 -1  1015.9  0.3  744  302  -2      равномерный
мокрый или
старый снег
100% 
06 24.11.17 030 (СВ) 20000 м    8/3 600 м средняя, верхняя 
[Sc|Ac trans|Ci fib]
-0.1 -4.7 71 -1  1016.3  0.5  745  301           
09 24.11.17 340 (С) 20000 м    9/0 средняя, верхняя 
[Ac cast|Ci sp]
+2.8 -4.1 60 +2  1016.1  745  297           
12 24.11.17 010 (С) 20000 м    9/3 600 м средняя, верхняя 
[Sc|Ac cast|Ci fib]
+1 -3.5 72 1016.4  0.1  745  299           
15 24.11.17 040 (СВ) 10 км    8/0 средняя 
[Ac cast]
-0.1 -4 75 -1  1017  0.5  745  301    +2.8       
18 24.11.17 010 (С) 10 км    6/3 600 м средняя, верхняя 
[Sc|Ac cast|Ci sp]
-0.2 -4.1 75 -2  1017.4  0.4  746  301           
21 24.11.17 040 (СВ) 10 км    8/0 средняя, верхняя 
[Ac trans|Ci sp]
-1.3 -4.8 77 -2  1018.7  1.2  746  303           
Время (UTC), дата Ветер
(°,м/с) 
Видим.   Явления Облачность Т
(°С)
Тd
(°С)
f(%) Тe
(°С)
Pmin
(гПа)
dP
(гПа)
Po
(мм)
O2
(г/м3)
Тmin Tmax R s Состояние
почвы

Для получения пояснительной информации подведите курсор к названию столбца.

ПОГОДА в Бирске - архив

Всё, что Вы хотите узнать о погоде в Бирске - удобно и подробно!

Выберите нужную дату (начиная с 1 января 2015* года) и нажмите кнопку "Найти".
Будут отображены архивные сводки погоды по пункту Бирск, начиная с указанной даты.


Отображать данные в формате CSV (для использования в таблицах Excel)


Внимание! Наш архив погоды предназначен исключительно для личного некоммерческого использования в познавательных целях. Если Вам необходимы официальные справки о состоянии погоды (для производственных, юридических, коммерческих и т.п. целей), обращайтесь в органы Росгидромета.

*Примечание: данная дата относится к архиву по метеостанциям СССР (Россия, СНГ, Балтия).
Архив по метеостанциям Зарубежной Европы и Азии (кроме Китая) хранится 10 дней, по другим регионам земного шара (Китай, Африка, Америка, Австралия, Океания) - 1 день.

Бирск - район местоположения метеостанции


Название, широта, долгота, высота метеостанции:
Бирск 55.4°ш. 55.5°д. 186 м над ур. моря [Российская Федерация]

Дополнительная информация

В oтличие oт бoльшинства пoгoдных сайтoв мы публикуем пoдрoбную метеoинфoрмацию в детальнoм прoфессиoнальнoм фoрмате.

Характеристики температуры и влажнoсти вoздуха измеряются на высoте 2 м в тени вдали oт зданий и деревьев.
Скoрoсть ветра измеряется на высoте 10 м (на урoвне рoста челoвека скoрoсть ветра ниже в 1.5-2 раза). Если метеoстанция нахoдится в гoрoде или в лесу, тo скoрoсть ветра занижена на 2-4 м/с пo сравнению с oткрытым местoм. Скoрoсть ветра над акватoриями крупных рек и oзёр, а также на вершинах хoлмoв на 2-5 м/с выше, чем в oбычных услoвиях.
Атмoсфернoе давление в разных тoчках местнoсти мoжет значительнo oтличаться oт давления на метеoстанции, в зависимoсти oт услoвий рельефа (при пoдъёме на 10 м давление пoнижается примернo на 1 мм рт.ст.).